Location: Mt. Chestnut Observatory
(40.9038°N, 79.9956°W)
Time: 15:16:11
(UTC-05:00)

Daily predictions for brighter satellites

Satellite Brightness Start Highest point End
(mag) Time Altitude Azimuth Time Altitude Azimuth Time Altitude Azimuth
YAOGAN 1 2.7 18:20:13 10° SSE 18:24:33 86° W 18:28:54 10° NNW
Cosmos 405 4.4 18:23:57 10° SE 18:26:25 18° E 18:28:55 10° NE
Cosmos 2333 Rocket 2.2 18:23:49 10° NNW 18:29:31 72° ENE 18:35:08 10° SSE
ORS 1 (USA 231) 4.5 18:27:58 10° W 18:30:20 51° S 18:32:41 10° ESE
NOSS 0 Rocket 4.0 18:24:38 10° NNW 18:30:48 63° ENE 18:36:55 10° SE
Cosmos 1812 4.1 18:28:11 10° NNE 18:30:59 19° ENE 18:33:47 10° ESE
DELTA 2 R/B (2) 3.8 18:29:27 10° WSW 18:31:06 35° S 18:32:46 10° ESE
Cosmos 1733 Rocket 3.7 18:29:11 10° SSE 18:33:03 33° E 18:36:57 10° NNE
Shenzhou-11 Module 2.0 18:32:07 10° WNW 18:35:07 76° SSW 18:38:06 10° ESE
Cosmos 1624 Rocket 4.0 18:30:07 10° NNW 18:35:18 58° ENE 18:40:25 10° SSE
Cosmos 1680 Rocket 4.4 18:30:18 10° SW 18:35:30 55° WNW 18:40:45 10° N
COSMOS 2428 3.5 18:30:01 10° NNW 18:35:40 59° WSW 18:41:15 10° S
SKYMED 2 3.7 18:33:03 10° N 18:37:24 80° WNW 18:41:44 10° SSW
Cosmos 2082 4.2 18:32:57 10° S 18:38:00 36° ESE 18:43:06 10° NE
NOSS 3-2 (A) 3.4 18:33:22 10° SSW 18:39:11 72° ESE 18:45:38 10° NE
ATLAS 3B R/B 3.1 18:34:20 10° SW 18:41:36 71° NW 18:48:36 10° NNE
ERS-2 2.7 18:42:50 10° SE 18:46:12 35° ENE 18:49:36 10° N
Tiangong 2 1.2 18:43:36 10° WNW 18:46:45 62° N 18:49:09 16° E
DMSP B5D1-3 4.5 18:42:07 10° NNE 18:47:15 71° ESE 18:52:22 10° S
DNEPR-1 R/B 3.6 18:45:47 10° SSW 18:49:54 55° ESE 18:54:06 10° NE
Cosmos 2233 Rocket 4.0 18:43:53 10° N 18:50:13 78° E 18:56:27 10° S
Okean 3 4.3 18:47:27 10° NNE 18:51:06 28° ENE 18:54:43 10° SE
Meteor 1-27 Rocket 4.2 18:47:50 10° NNW 18:53:41 69° W 18:59:33 10° S
USA 238 DEB 4.3 18:47:08 10° SW 18:53:54 58° NW 19:00:47 10° NNE
USA 238 4.3 18:47:13 10° SW 18:54:00 58° NW 19:00:54 10° NNE
FREGAT/IRIS 3.1 18:51:28 10° SE 18:54:12 35° ENE 18:56:57 10° N
EO 1 Del DPAF 3.1 18:51:31 10° NNE 18:55:22 81° ESE 18:59:11 10° S
Lacrosse 4 Rocket 4.3 18:52:18 10° WNW 18:55:30 21° WSW 18:58:44 10° SSW
Thor Agena Rocket 4.3 18:51:16 10° NE 18:55:38 28° E 18:59:58 10° SSE
Cosmos 1980 3.6 18:52:01 10° NNW 18:57:44 77° ENE 19:03:24 10° SSE
FengYun 1-2 T 4.2 18:53:38 10° SSE 18:59:04 62° ENE 19:04:30 10° N
Lacrosse 5 1.8 18:56:27 10° NW 19:01:32 79° NE 19:06:35 10° SE
Cosmos 1464 Rocket 4.3 18:57:48 10° N 19:03:35 41° ENE 19:09:19 10° SSE
Cosmos 1633 3.2 19:01:38 10° SSE 19:04:47 30° E 19:07:57 10° NNE
BREEZE-M R/B 3.9 19:02:49 10° NW 19:05:03 35° NNE 19:07:30 20° E
Cosmos 2084 Rocket 3.6 19:01:55 10° SW 19:06:19 78° NW 19:10:33 10° NNE
Sich 1 Rocket 4.5 19:04:14 10° SSE 19:08:02 27° E 19:11:48 10° NNE
Cosmos 1238 4.3 19:06:54 10° S 19:10:01 80° E 19:13:45 10° N
Aureole 3 4.2 19:04:07 10° S 19:10:30 66° E 19:15:35 10° NNE
Envisat 3.5 19:06:14 10° SE 19:10:49 36° ENE 19:15:25 10° N
ALOS 4.0 19:10:22 10° SSW 19:14:38 36° W 19:18:57 10° NNW
SJ-6B 2.9 19:11:22 10° SE 19:14:56 45° ENE 19:18:35 10° N
Cosmos 2285 Rocket 4.5 19:11:10 10° SSW 19:17:25 64° WNW 19:23:46 10° NNE
Cosmos 1378 Rocket 3.9 19:14:08 10° N 19:18:19 42° ENE 19:22:32 10° SSE
USA 215 3.2 19:15:54 11° NE 19:22:13 86° SE 19:28:46 10° SW
Abrixas rocket 4.5 19:22:11 10° W 19:24:39 21° SW 19:27:07 10° S
Meteor 1-14 Rocket 4.2 19:19:00 10° S 19:24:41 72° E 19:30:33 10° NNE
HJ-1C 3.3 19:21:33 10° SSE 19:24:57 72° ENE 19:28:23 10° N
SeaSat 1 2.4 19:20:52 10° SE 19:25:45 67° ENE 19:30:40 10° NNW
Cosmos 44 3.7 19:21:19 10° NNW 19:26:09 47° NE 19:28:16 30° ESE
Okean 1 4.1 19:24:02 10° N 19:27:01 32° NE 19:27:01 32° NE
NOSS 3-2 (C) 3.7 19:24:33 10° SW 19:30:28 72° NW 19:37:04 10° NNE
ARGOS Delta rocket 3.9 19:26:05 10° NNE 19:30:55 52° E 19:35:28 10° S
Cosmos 2219 Rocket 4.2 19:26:41 10° NW 19:31:32 30° WSW 19:36:21 10° SSW
Cosmos 2034 Rocket 4.0 19:30:40 10° N 19:36:57 57° E 19:43:11 10° SSE
FALCON 9 R/B 4.5 19:32:19 10° WSW 19:40:12 67° S 19:57:36 26° ESE
Cosmos 1891 Rocket 4.3 19:35:22 10° N 19:41:38 74° E 19:47:44 10° SSE
Cosmos 2227 Rocket 3.0 19:36:17 10° SW 19:41:46 52° WNW 19:47:18 10° NNE
CZ-4C R/B 4.3 19:38:09 10° NNW 19:42:46 18° NNE 19:44:04 18° NE
Cosmos 2237 Rocket 3.1 19:37:27 10° NW 19:42:51 49° WSW 19:48:13 10° S
SL-16 R/B 2.1 19:38:57 10° NNW 19:44:37 71° ENE 19:47:38 29° SE
SL-8 R/B 3.6 19:42:56 10° SW 19:47:41 72° SE 19:48:30 57° E
OAO 2 Rocket 4.5 19:45:37 10° SW 19:49:42 26° SSE 19:49:44 26° SSE
Meteor 1-20 Rocket 4.2 19:44:26 10° S 19:50:06 85° W 19:55:55 10° N
Meteor 1-18 Rocket 4.1 19:45:30 10° N 19:51:10 87° WSW 19:56:42 10° S
Cosmos 1452 Rocket 3.6 19:48:55 10° NNW 19:54:11 75° WSW 19:58:47 14° S
USA 267 3.6 19:53:08 39° ENE 19:55:02 49° NNE 20:01:17 10° NW
CZ-2D R/B 3.6 19:53:26 20° S 19:56:01 65° W 19:59:55 10° NNW
Cosmos 2297 Rocket 3.2 19:50:54 10° SW 19:56:18 46° WNW 20:01:45 10° NNE
Cosmos 1908 Rocket 4.1 19:56:35 10° SSW 20:01:00 60° W 20:05:26 10° N
Spot 2 Rocket 3.8 20:01:54 49° NE 20:01:54 49° NE 20:06:04 10° N
Cosmos 1048 Rocket 3.9 19:57:39 10° SSW 20:02:59 79° ESE 20:04:54 41° NNE
Resurs 1-3 4.1 20:05:47 47° N 20:05:47 47° N 20:09:00 10° N
Geosat 3.9 20:02:18 28° NNE 20:05:02 84° WNW 20:10:04 10° SSW
CENTAUR R/B 2.4 20:00:23 10° SSW 20:06:22 88° SE 20:09:52 31° NE
BREEZE-M DEB (TANK) 4.0 20:04:38 10° NW 20:05:29 20° NW 20:05:29 20° NW
Resurs 01 Rocket 2.2 20:09:59 49° N 20:09:59 49° N 20:13:14 10° N
Meteor 1-19 Rocket 4.2 20:06:02 10° N 20:10:49 59° NE 20:10:49 59° NE
Cosmos 921 Rocket 4.1 20:17:45 10° NNW 20:20:44 41° NNW 20:20:44 41° NNW
Cosmos 44 Rocket 3.5 20:18:21 10° NW 20:23:04 72° W 20:23:04 72° W
Tiangong 2 4.0 20:20:27 10° W 20:21:24 18° W 20:21:24 18° W
Tsikada Rocket 4.1 20:20:27 10° S 20:26:51 79° W 20:33:19 10° N
Cosmos 1975 Rocket 4.5 20:24:10 10° NNW 20:26:41 33° NNW 20:26:41 33° NNW
Lacrosse 5 4.3 20:40:50 10° W 20:43:55 16° WSW 20:46:03 13° SSW
USA 215 4.4 21:03:15 31° N 21:04:47 35° NNW 21:10:34 10° W
CZ-4C R/B 4.1 21:25:42 10° NNW 21:29:17 32° NNW 21:29:17 32° NNW
